timestamp,surface_pressure_avg,surface_temp_avg,battery_voltage,lat,long
2022-10-26 00:09:00+00:00,355.0629,13.7,12.41,47.84626,-54.09684
2022-10-26 00:19:00+00:00,352.0447,13.7,12.41,47.84626,-54.09684
2022-10-26 00:29:00+00:00,352.5764,13.7,12.41,47.84626,-54.09684
2022-10-26 00:39:00+00:00,350.5296,13.7,12.41,47.84626,-54.09684
2022-10-26 00:49:00+00:00,341.7379,13.7,12.41,47.84626,-54.09684
2022-10-26 00:59:00+00:00,337.4313,13.7,12.41,47.84626,-54.09684
2022-10-26 01:09:00+00:00,332.9696,13.7,12.41,47.84626,-54.09684
2022-10-26 01:19:00+00:00,325.8879,13.7,12.41,47.84626,-54.09684
2022-10-26 01:29:00+00:00,318.5964,13.7,12.41,47.84626,-54.09684
2022-10-26 01:39:00+00:00,317.0446,13.7,12.41,47.84626,-54.09684
2022-10-26 01:49:00+00:00,314.0031,13.7,12.41,47.84626,-54.09684
2022-10-26 01:59:00+00:00,303.5081,13.66,12.41,47.84626,-54.09684
2022-10-26 02:09:00+00:00,296.4548,13.66,12.41,47.84626,-54.09684
2022-10-26 02:19:00+00:00,293.5247,13.65,12.41,47.84626,-54.09684
2022-10-26 02:29:00+00:00,285.2897,13.6,12.41,47.84626,-54.09684
2022-10-26 02:39:00+00:00,272.2631,13.6,12.41,47.84626,-54.09684
2022-10-26 02:49:00+00:00,264.3997,13.58,12.41,47.84626,-54.09684
2022-10-26 02:59:00+00:00,260.4214,13.59,12.41,47.84626,-54.09684
2022-10-26 03:09:00+00:00,248.993,13.58,12.41,47.84626,-54.09684
2022-10-26 03:19:00+00:00,235.8281,13.5,12.41,47.84626,-54.09684
2022-10-26 03:29:00+00:00,229.7664,13.5,12.41,47.84626,-54.09684
2022-10-26 03:39:00+00:00,220.4514,13.5,12.41,47.84626,-54.09684
2022-10-26 03:49:00+00:00,206.3298,13.5,12.41,47.84626,-54.09684
2022-10-26 03:59:00+00:00,198.6781,13.5,12.41,47.84626,-54.09684
2022-10-26 04:09:00+00:00,194.3815,13.5,12.41,47.84626,-54.09684
2022-10-26 04:19:00+00:00,185.8331,13.5,12.33,47.84626,-54.09684
2022-10-26 04:29:00+00:00,177.9381,13.45,12.33,47.84626,-54.09684
2022-10-26 04:39:00+00:00,175.3131,13.4,12.33,47.84626,-54.09684
2022-10-26 04:49:00+00:00,171.2465,13.43,12.33,47.84626,-54.09684
2022-10-26 04:59:00+00:00,164.2032,13.4,12.33,47.84626,-54.09684
2022-10-26 05:09:00+00:00,162.5615,13.4,12.33,47.84626,-54.09684
2022-10-26 05:19:00+00:00,162.7715,13.4,12.33,47.84626,-54.09684
2022-10-26 05:29:00+00:00,161.6165,13.4,12.33,47.84626,-54.09684
2022-10-26 05:39:00+00:00,162.3782,13.3,12.33,47.84626,-54.09684
2022-10-26 05:49:00+00:00,167.0981,13.31,12.33,47.84626,-54.09684
2022-10-26 05:59:00+00:00,170.1315,13.33,12.33,47.84626,-54.09684
2022-10-26 06:09:00+00:00,169.9115,13.3,12.33,47.84626,-54.09684
2022-10-26 06:19:00+00:00,174.8765,13.3,12.33,47.84626,-54.09684
2022-10-26 06:29:00+00:00,181.7181,13.3,12.33,47.84626,-54.09684
2022-10-26 06:39:00+00:00,184.5882,13.3,12.33,47.84626,-54.09684
2022-10-26 06:49:00+00:00,184.9631,13.3,12.33,47.84626,-54.09684
2022-10-26 06:59:00+00:00,191.4731,13.3,12.33,47.84626,-54.09684
2022-10-26 07:09:00+00:00,197.0714,13.3,12.33,47.84626,-54.09684
2022-10-26 07:19:00+00:00,197.6481,13.3,12.33,47.84626,-54.09684
2022-10-26 07:29:00+00:00,203.9798,13.33,12.33,47.84626,-54.09684
2022-10-26 07:39:00+00:00,211.4248,13.38,12.33,47.84626,-54.09684
2022-10-26 07:49:00+00:00,212.9348,13.4,12.33,47.84626,-54.09684
2022-10-26 07:59:00+00:00,218.3164,13.4,12.33,47.84626,-54.09684
2022-10-26 08:09:00+00:00,228.0731,13.4,12.33,47.84626,-54.09684
2022-10-26 08:19:00+00:00,233.618,13.4,12.33,47.84626,-54.09684
2022-10-26 08:29:00+00:00,239.6164,13.4,12.33,47.84626,-54.09684
2022-10-26 08:39:00+00:00,247.8131,13.4,12.33,47.84626,-54.09684
2022-10-26 08:49:00+00:00,256.5681,13.4,12.33,47.84626,-54.09684
2022-10-26 08:59:00+00:00,262.6881,13.4,12.33,47.84626,-54.09684
2022-10-26 09:09:00+00:00,269.0347,13.4,12.33,47.84626,-54.09684
2022-10-26 09:19:00+00:00,278.1497,13.4,12.33,47.84626,-54.09684
2022-10-26 09:29:00+00:00,288.323,13.4,12.33,47.84626,-54.09684
2022-10-26 09:39:00+00:00,293.1813,13.4,12.33,47.84626,-54.09684
2022-10-26 09:49:00+00:00,298.1013,13.42,12.33,47.84626,-54.09684
2022-10-26 09:59:00+00:00,308.4363,13.49,12.33,47.84626,-54.09684
2022-10-26 10:09:00+00:00,319.498,13.5,12.33,47.84626,-54.09684
2022-10-26 10:19:00+00:00,325.1163,13.5,12.33,47.84626,-54.09684
2022-10-26 10:29:00+00:00,330.8563,13.5,12.33,47.84626,-54.09684
2022-10-26 10:39:00+00:00,341.0096,13.5,12.33,47.84626,-54.09684
2022-10-26 10:49:00+00:00,347.36800000000005,13.5,12.33,47.84626,-54.09684
2022-10-26 10:59:00+00:00,351.6364,13.5,12.33,47.84626,-54.09684
2022-10-26 11:09:00+00:00,357.6713,13.5,12.33,47.84626,-54.09684
2022-10-26 11:19:00+00:00,363.4246,13.5,12.33,47.84626,-54.09684
2022-10-26 11:29:00+00:00,364.5114,13.5,12.33,47.84626,-54.09684
2022-10-26 11:39:00+00:00,367.4562,13.5,12.33,47.84626,-54.09684
2022-10-26 11:49:00+00:00,372.0762,13.5,12.33,47.84626,-54.09684
2022-10-26 11:59:00+00:00,375.8661,13.5,12.33,47.84626,-54.09684
2022-10-26 12:09:00+00:00,376.6929,13.5,12.33,47.84626,-54.09684
2022-10-26 12:19:00+00:00,375.9946,13.5,12.41,47.84626,-54.09684
2022-10-26 12:29:00+00:00,374.3679,13.5,12.41,47.84626,-54.09684
2022-10-26 12:39:00+00:00,374.0232,13.5,12.41,47.84626,-54.09684
2022-10-26 12:49:00+00:00,373.0547,13.5,12.41,47.84626,-54.09684
2022-10-26 12:59:00+00:00,368.5195,13.5,12.41,47.84626,-54.09684
2022-10-26 13:09:00+00:00,363.3179,13.5,12.41,47.84626,-54.09684
2022-10-26 13:19:01+00:00,359.4829,13.5,12.65,47.84626,-54.09684
2022-10-26 13:29:01+00:00,355.25800000000015,13.5,12.65,47.84626,-54.09684
2022-10-26 13:39:01+00:00,348.98800000000006,13.5,12.65,47.84626,-54.09684
2022-10-26 13:49:01+00:00,345.95300000000015,13.52,12.65,47.84626,-54.09684
2022-10-26 13:59:01+00:00,341.918,13.55,12.65,47.84626,-54.09684
2022-10-26 14:09:01+00:00,330.533,13.57,12.65,47.84626,-54.09684
2022-10-26 14:19:00+00:00,324.9379,13.59,12.65,47.84626,-54.09684
2022-10-26 14:29:00+00:00,322.9447,13.59,12.65,47.84626,-54.09684
2022-10-26 14:39:00+00:00,310.9913,13.6,12.65,47.84626,-54.09684
2022-10-26 14:49:00+00:00,294.1797,13.6,12.65,47.84626,-54.09684
2022-10-26 14:59:00+00:00,289.4681,13.6,12.65,47.84626,-54.09684
2022-10-26 15:09:00+00:00,287.5864,13.6,12.65,47.84626,-54.09684
2022-10-26 15:19:01+00:00,273.3931,13.66,12.89,47.84626,-54.09684
2022-10-26 15:29:01+00:00,258.2831,13.69,12.89,47.84626,-54.09684
2022-10-26 15:39:01+00:00,254.0114,13.6,12.89,47.84626,-54.09684
2022-10-26 15:49:01+00:00,248.7531,13.6,12.89,47.84626,-54.09684
2022-10-26 15:59:01+00:00,235.9497,13.6,12.89,47.84626,-54.09684
2022-10-26 16:09:01+00:00,225.0831,13.59,12.89,47.84626,-54.09684
2022-10-26 16:19:01+00:00,221.6931,13.59,12.49,47.84626,-54.09684
2022-10-26 16:29:01+00:00,213.9681,13.56,12.49,47.84626,-54.09684
2022-10-26 16:39:01+00:00,203.2315,13.57,12.49,47.84626,-54.09684
2022-10-26 16:49:01+00:00,198.8598,13.59,12.49,47.84626,-54.09684
2022-10-26 16:59:01+00:00,196.5431,13.58,12.49,47.84626,-54.09684
2022-10-26 17:09:01+00:00,185.4598,13.58,12.49,47.84626,-54.09684
2022-10-26 17:19:00+00:00,177.2614,13.59,12.49,47.84626,-54.09684
2022-10-26 17:29:00+00:00,178.6365,13.6,12.49,47.84626,-54.09684
2022-10-26 17:39:00+00:00,175.3665,13.6,12.49,47.84626,-54.09684
2022-10-26 17:49:00+00:00,167.2281,13.6,12.49,47.84626,-54.09684
2022-10-26 17:59:00+00:00,165.7482,13.6,12.49,47.84626,-54.09684
2022-10-26 18:09:00+00:00,167.6031,13.6,12.49,47.84626,-54.09684
2022-10-26 18:19:00+00:00,166.9816,13.6,12.49,47.84626,-54.09684
2022-10-26 18:29:00+00:00,168.6465,13.6,12.49,47.84626,-54.09684
2022-10-26 18:39:00+00:00,170.8165,13.6,12.49,47.84626,-54.09684
2022-10-26 18:49:00+00:00,170.8181,13.6,12.49,47.84626,-54.09684
2022-10-26 18:59:00+00:00,173.4948,13.6,12.49,47.84626,-54.09684
2022-10-26 19:09:00+00:00,179.6748,13.6,12.49,47.84626,-54.09684
2022-10-26 19:19:00+00:00,182.7098,13.6,12.57,47.84626,-54.09684
2022-10-26 19:29:00+00:00,183.3231,13.6,12.57,47.84626,-54.09684
2022-10-26 19:39:00+00:00,187.7815,13.6,12.57,47.84626,-54.09684
2022-10-26 19:49:00+00:00,197.8898,13.6,12.57,47.84626,-54.09684
2022-10-26 19:59:00+00:00,204.0015,13.6,12.57,47.84626,-54.09684
2022-10-26 20:09:00+00:00,208.1231,13.6,12.57,47.84626,-54.09684
2022-10-26 20:19:01+00:00,215.2415,13.6,12.41,47.84626,-54.09684
2022-10-26 20:29:01+00:00,221.2598,13.65,12.41,47.84626,-54.09684
2022-10-26 20:39:01+00:00,223.4981,13.66,12.41,47.84626,-54.09684
2022-10-26 20:49:01+00:00,229.9148,13.67,12.41,47.84626,-54.09684
2022-10-26 20:59:01+00:00,239.7114,13.66,12.41,47.84626,-54.09684
2022-10-26 21:09:01+00:00,242.3098,13.67,12.41,47.84626,-54.09684
2022-10-26 21:19:00+00:00,244.3914,13.68,12.33,47.84626,-54.09684
2022-10-26 21:29:00+00:00,252.7481,13.64,12.33,47.84626,-54.09684
2022-10-26 21:39:00+00:00,262.9648,13.62,12.33,47.84626,-54.09684
2022-10-26 21:49:00+00:00,267.0381,13.62,12.33,47.84626,-54.09684
2022-10-26 21:59:00+00:00,272.9031,13.61,12.33,47.84626,-54.09684
2022-10-26 22:09:00+00:00,280.6864,13.6,12.33,47.84626,-54.09684
2022-10-26 22:19:00+00:00,287.3947,13.6,12.33,47.84626,-54.09684
2022-10-26 22:29:00+00:00,293.4064,13.6,12.33,47.84626,-54.09684
2022-10-26 22:39:00+00:00,303.6047,13.6,12.33,47.84626,-54.09684
2022-10-26 22:49:00+00:00,313.058,13.6,12.33,47.84626,-54.09684
2022-10-26 22:59:00+00:00,320.5596,13.6,12.33,47.84626,-54.09684
2022-10-26 23:09:00+00:00,328.3196,13.6,12.33,47.84626,-54.09684
2022-10-26 23:19:00+00:00,339.0895,13.6,12.33,47.84626,-54.09684
2022-10-26 23:29:00+00:00,343.0031,13.6,12.33,47.84626,-54.09684
2022-10-26 23:39:00+00:00,345.5264,13.6,12.33,47.84626,-54.09684
2022-10-26 23:49:00+00:00,351.2779,13.6,12.33,47.84626,-54.09684
2022-10-26 23:59:00+00:00,355.1913,13.6,12.33,47.84626,-54.09684
